This is the latest recevied weather packets stored in our database for station/object KG5WBN. If no packets are shown the sender has not sent any weather packets the latest 10 day(s).
| Time | Temp. | Humidity | Pressure | Rain* | Wind** | Luminosity | Snow |
|---|---|---|---|---|---|---|---|
| 1787380117 | 25° C | 99% | 1013.5 hPa | 0 mm | - | 0 W/m² | - |
| 1787379813 | 24.44° C | 99% | 1013.5 hPa | 0 mm | - | 0 W/m² | - |
| 1787379512 | 24.44° C | 99% | 1013.9 hPa | 0 mm | - | 0 W/m² | - |
| 1787379201 | 24.44° C | 99% | 1013.9 hPa | 0 mm | - | 0 W/m² | - |
| 1787378900 | 25° C | 99% | 1013.9 hPa | 0 mm | - | 0 W/m² | - |
| 1787378595 | 25° C | 99% | 1013.9 hPa | 0 mm | - | 0 W/m² | - |
| 1787378294 | 24.44° C | 99% | 1014.2 hPa | 0 mm | - | 0 W/m² | - |
| 1787377991 | 24.44° C | 99% | 1014.2 hPa | 0 mm | - | 0 W/m² | - |
| 1787377689 | 24.44° C | 99% | 1014.6 hPa | 0 mm | - | 0 W/m² | - |
| 1787377388 | 25° C | 99% | 1014.6 hPa | 0 mm | - | 0 W/m² | - |
| 1787377083 | 25° C | 99% | 1014.9 hPa | 0 mm | - | 0 W/m² | - |
| 1787376780 | 25° C | 99% | 1014.6 hPa | 0 mm | - | 0 W/m² | - |
| 1787376475 | 25° C | 99% | 1014.6 hPa | 0 mm | - | 0 W/m² | - |
| 1787376171 | 25° C | 99% | 1014.9 hPa | 0 mm | - | 0 W/m² | - |
| 1787375867 | 25° C | 99% | 1015.2 hPa | 0 mm | - | 0 W/m² | - |
| 1787375562 | 25° C | 99% | 1014.9 hPa | 0 mm | - | 0 W/m² | - |
| 1787375258 | 25° C | 99% | 1014.9 hPa | 0 mm | - | 0 W/m² | - |
| 1787374953 | 25° C | 99% | 1015.2 hPa | 1.27 mm | - | 0 W/m² | - |
| 1787374649 | 25° C | 99% | 1015.2 hPa | 3.05 mm | - | 0 W/m² | - |
| 1787374346 | 25° C | 99% | 1014.9 hPa | 3.05 mm | - | 0 W/m² | - |
| 1787374041 | 25° C | 99% | 1014.9 hPa | 4.32 mm | - | 0 W/m² | - |
| 1787373740 | 25° C | 99% | 1015.9 hPa | 1.27 mm | - | 0 W/m² | - |
| 1787373434 | 25° C | 99% | 1015.9 hPa | 1.27 mm | - | 0 W/m² | - |
| 1787373131 | 25° C | 99% | 1015.9 hPa | 1.27 mm | - | 0 W/m² | - |
| 1787372825 | 25° C | 99% | 1015.9 hPa | 0 mm | - | 0 W/m² | - |
* Rain latest hour (hover to see other rain measurements)
** Current wind speed in m/s (hover to see current wind gust speed)